Lid_Strength_Index
3 2 2 3 3 3 3 3 3 3 3 3 3 3 3 3 3 3 3 2 2 2 2 2 2 2 1 4 4 -0 -1 -2 2 2 3 5 5 5 6 6 5 6 6 5 5 5 5
3 3 3 3 3 3 3 4 3 3 3 3 3 3 3 3 3 3 3 3 3 3 3 2 2 2 2 5 2 -1 0 2 2 2 4 3 4 3 5 5 5 5 4 5 4 4 4
3 3 3 3 4 4 4 4 4 4 3 3 3 3 4 4 4 3 3 3 3 3 3 2 2 1 3 4 1 -0 1 2 2 2 4 3 2 3 4 5 4 4 6 6 5 5 5
3 3 3 4 4 4 4 4 4 4 4 3 3 3 4 4 4 4 3 3 3 2 2 2 2 1 5 2 0 1 1 3 2 2 2 2 2 3 4 4 5 6 6 8 7 6 5
4 4 4 4 4 4 4 4 4 4 4 4 4 4 4 4 4 4 4 4 3 2 2 1 1 3 5 2 2 0 0 3 2 3 2 3 3 4 4 5 6 6 8 8 8 6 6
4 4 4 4 4 4 4 4 4 4 4 4 4 4 4 4 4 4 4 4 1 1 1 1 1 4 3 4 1 1 0 1 2 3 4 4 4 5 5 6 10 8 8 8 8 7 7
4 4 4 4 4 5 5 5 5 4 4 4 4 4 4 4 4 4 4 2 3 3 3 4 4 5 4 2 2 2 1 1 2 4 6 4 6 7 6 6 6 7 7 8 7 7 7
4 4 5 5 5 5 4 5 5 5 5 4 4 4 4 4 4 5 3 5 4 4 6 3 3 3 2 2 4 3 1 4 4 6 5 6 8 6 6 6 6 7 8 9 9 7 7
4 4 4 4 4 4 4 4 4 5 5 5 4 4 4 4 4 3 5 5 3 2 5 5 4 4 3 2 4 4 3 4 5 6 6 7 6 5 6 6 7 7 7 9 9 8 8
4 4 4 5 5 4 4 4 4 4 5 5 5 5 4 5 5 4 5 3 2 2 7 6 6 5 4 3 5 2 2 4 5 6 6 6 5 6 6 7 6 8 6 7 9 10 11
4 4 4 4 4 4 4 4 4 4 4 4 5 5 5 5 5 5 3 2 2 3 12 6 5 2 3 4 4 4 2 4 6 6 6 7 6 6 7 7 6 8 6 7 8 8 9
4 4 4 4 4 4 5 5 4 4 4 4 4 4 5 4 4 4 3 2 2 8 13 7 5 6 5 4 5 4 4 3 4 5 5 6 4 5 6 5 5 6 7 8 8 8 11
4 5 4 4 4 4 4 4 4 4 4 4 5 5 5 3 4 3 2 2 8 11 7 8 7 6 6 6 6 5 6 6 7 8 8 7 6 5 5 6 6 6 7 11 12 11 11
4 4 4 4 4 4 4 4 4 4 4 4 5 5 4 3 1 3 3 5 11 8 8 6 6 6 7 6 6 6 6 7 5 6 8 9 10 6 5 6 7 7 7 10 14 12 11
5 5 5 5 4 4 4 4 4 4 4 4 4 1 1 -1 1 2 5 9 9 8 7 7 7 8 8 6 6 6 6 7 6 5 8 9 9 6 6 5 6 7 9 7 10 9 11
5 5 5 5 5 4 4 4 4 3 4 4 3 3 1 0 0 2 6 9 7 6 6 6 9 8 9 8 8 7 7 6 6 5 4 7 10 6 6 5 5 6 6 9 9 13 14
5 5 5 4 4 4 5 4 4 4 4 4 2 4 1 1 2 4 9 8 6 5 5 7 8 8 8 8 7 7 7 6 5 5 4 6 7 8 6 7 8 7 8 8 8 9 12
5 5 5 5 5 5 5 4 4 4 4 3 2 5 1 1 6 4 7 6 6 5 4 5 5 6 7 7 7 7 7 6 4 4 6 5 7 10 8 6 6 6 7 7 10 12 10
5 5 5 5 5 5 5 4 4 4 4 4 4 4 -0 1 8 7 6 6 5 6 5 5 6 6 6 7 9 7 6 5 5 5 6 6 8 11 11 8 7 8 7 7 8 8 10
5 5 5 5 5 5 4 4 4 4 4 3 4 6 3 2 3 7 8 7 7 5 5 5 5 5 6 7 6 8 7 6 5 5 5 5 7 9 11 9 7 9 8 7 8 11 10
5 5 5 5 5 5 4 4 4 4 4 3 3 6 5 7 6 7 6 7 8 8 6 5 6 6 7 8 8 8 7 7 6 6 5 6 9 8 7 7 7 8 8 8 9 8 10
5 5 5 5 5 5 5 4 4 4 4 3 6 7 6 7 5 6 7 8 8 7 7 7 8 7 7 8 7 8 7 7 7 6 6 6 9 8 9 8 7 9 8 8 8 7 8
5 5 5 5 5 5 4 4 4 4 4 5 5 4 7 7 6 6 7 8 8 6 6 6 6 7 8 7 6 5 5 5 6 7 7 8 9 10 11 9 9 11 9 8 7 7 7
5 5 5 5 5 5 4 4 4 4 4 4 5 6 6 8 8 8 7 7 7 7 7 6 5 7 6 3 4 4 5 5 5 6 5 8 8 9 12 10 15 9 6 7 7 7 6
5 5 5 5 5 5 4 4 4 4 4 4 4 6 8 9 8 8 7 7 6 6 7 6 5 4 3 5 7 9 9 8 8 7 7 7 7 12 14 14 11 9 7 8 8 8 5
5 5 5 4 4 4 4 4 4 4 4 4 4 4 7 8 7 7 8 7 7 7 6 6 4 3 4 7 8 12 12 10 11 9 6 7 7 10 11 15 16 9 6 5 5 10 5
5 4 4 4 4 4 4 4 4 4 4 4 4 3 6 8 6 5 6 8 6 6 7 5 6 5 5 9 11 12 11 8 12 11 11 10 9 11 11 13 10 6 5 5 11 9 5
4 4 4 4 4 3 3 3 3 3 3 3 5 3 6 8 7 6 6 7 7 7 9 7 7 6 7 11 12 12 12 9 10 8 9 10 11 11 10 12 15 5 6 8 6 4 4
4 3 3 3 3 3 3 3 3 3 3 3 5 4 4 8 7 5 5 4 5 6 7 7 7 7 6 9 8 10 12 9 10 13 8 12 8 10 9 9 6 4 5 4 3 4 4